GW6647 Weather Reports


time (UTC)temp
C
wind
direction
speed
KPH
gust
KPH
rain 1hr
cm
rain 24hr
cm
rain mn
cm
humidity
%
barometer
mb
20260504150652 13 287 9.7 11.3 0.00 0.00 0.00 69 1017.9
20260504150149 13 309 14.5 16.1 0.00 0.00 0.00 68 1018.0
20260504141118 13 269 16.1 20.9 0.00 0.13 0.13 71 1017.6
20260504140615 13 327 12.9 27.4 0.00 0.13 0.13 70 1017.4
20260504140110 13 294 8.0 20.9 0.00 0.13 0.13 71 1017.4
20260504130539 14 303 12.9 17.7 0.00 0.13 0.13 71 1017.6
20260504110426 15 304 14.5 20.9 0.00 0.13 0.13 71 1015.1
20260504100343 15 275 9.7 16.1 0.00 0.13 0.13 70 1013.7
20260504081737 18 30 19.3 27.4 0.00 0.13 0.13 63 1011.2
20260504081233 20 350 22.5 29.0 0.00 0.13 0.13 59 1011.0
20260504080730 20 277 16.1 25.7 0.00 0.13 0.13 44 1010.6
20260504080226 20 313 19.3 29.0 0.00 0.13 0.13 43 1010.4
20260504070153 21 316 14.5 22.5 0.00 0.13 0.13 44 1009.4
20260504060114 21 268 14.5 29.0 0.00 0.13 0.13 42 1008.5
20260504050542 21 280 19.3 27.4 0.00 0.13 0.13 41 1008.3
20260504045536 21 271 16.1 27.4 0.00 0.13 0.13 40 1008.0
20260504045031 21 289 17.7 27.4 0.00 0.13 0.13 40 1008.0
20260504044529 21 286 14.5 25.7 0.00 0.13 0.13 41 1008.0
20260504044026 21 303 9.7 16.1 0.00 0.13 0.13 43 1007.7
20260504043523 21 273 12.9 16.1 0.00 0.13 0.13 42 1007.8
20260504043020 21 264 16.1 16.1 0.00 0.13 0.13 42 1007.8
20260504042517 22 280 14.5 27.4 0.00 0.13 0.13 40 1007.6
20260504042014 22 275 16.1 22.5 0.00 0.13 0.13 39 1007.6
20260504041510 22 265 11.3 14.5 0.00 0.13 0.13 43 1007.7
20260504041006 22 260 11.3 24.1 0.00 0.13 0.13 42 1007.8
20260504040504 22 290 14.5 24.1 0.00 0.13 0.13 44 1007.6
20260504035959 22 270 8.0 16.1 0.00 0.13 0.13 46 1007.7
20260504035457 22 238 17.7 24.1 0.00 0.13 0.13 43 1007.9
20260504034953 22 304 17.7 27.4 0.00 0.13 0.13 46 1007.7
20260504034451 22 277 14.5 30.6 0.00 0.13 0.13 47 1007.6
20260504033948 22 321 6.4 17.7 0.00 0.13 0.13 48 1007.5
20260504033446 21 274 16.1 20.9 0.00 0.13 0.13 47 1007.7
20260504032943 22 268 22.5 29.0 0.00 0.13 0.13 46 1007.6
20260504032440 22 269 12.9 27.4 0.00 0.13 0.13 50 1007.7
20260504031936 22 295 9.7 14.5 0.00 0.13 0.13 48 1007.6
20260504031433 21 287 14.5 20.9 0.00 0.13 0.13 50 1007.5
20260504030930 21 315 16.1 24.1 0.00 0.13 0.13 50 1007.7
20260504030427 21 264 27.4 30.6 0.00 0.13 0.13 46 1007.6
20260504025923 21 293 27.4 38.6 0.00 0.13 0.13 51 1007.2
20260504025420 20 299 25.7 35.4 0.00 0.13 0.13 53 1007.6
20260504024917 21 274 22.5 35.4 0.00 0.13 0.13 54 1007.2
20260504024414 21 289 29.0 37.0 0.00 0.13 0.13 53 1007.2
20260504023911 21 258 25.7 35.4 0.00 0.13 0.13 52 1007.3
20260504023407 21 264 14.5 30.6 0.00 0.13 0.13 52 1007.2
20260504022903 21 291 25.7 29.0 0.00 0.13 0.13 52 1007.1
20260504022400 21 132 19.3 25.7 0.00 0.13 0.13 53 1007.4
20260504021856 21 299 11.3 33.8 0.00 0.13 0.13 57 1007.4
20260504021354 21 270 22.5 30.6 0.00 0.13 0.13 53 1007.3
20260504020850 21 275 20.9 27.4 0.00 0.13 0.13 53 1007.2
20260504020347 22 43 9.7 22.5 0.00 0.13 0.13 56 1007.4
20260504015843 21 298 17.7 20.9 0.00 0.13 0.13 55 1007.2
20260504015340 21 298 14.5 33.8 0.00 0.13 0.13 56 1007.4
20260504014836 21 288 27.4 29.0 0.00 0.13 0.13 54 1007.4
20260504014332 21 313 19.3 30.6 0.00 0.13 0.13 54 1007.2
20260504013830 21 289 27.4 38.6 0.00 0.13 0.13 54 1007.3
20260504013327 21 296 19.3 29.0 0.00 0.13 0.13 55 1007.3
20260504012824 21 283 14.5 24.1 0.00 0.13 0.13 54 1007.4
20260504012322 21 273 24.1 33.8 0.00 0.13 0.13 53 1007.6
20260504011819 21 271 20.9 30.6 0.00 0.13 0.13 55 1007.4
20260504011315 21 245 14.5 20.9 0.00 0.13 0.13 56 1007.3
20260504010811 20 273 17.7 20.9 0.00 0.13 0.13 56 1007.4
20260504010307 20 315 20.9 33.8 0.00 0.13 0.13 55 1007.0
20260504005804 21 256 20.9 30.6 0.00 0.13 0.13 55 1007.3
20260504005301 21 286 12.9 20.9 0.00 0.13 0.13 56 1007.2
20260504004759 21 336 14.5 20.9 0.00 0.13 0.13 57 1007.3
20260504004256 21 276 22.5 27.4 0.00 0.13 0.13 56 1007.1
20260504003752 20 300 9.7 20.9 0.00 0.13 0.13 61 1007.3
20260504003249 20 286 16.1 22.5 0.00 0.13 0.13 60 1007.0
20260504002745 20 277 20.9 30.6 0.00 0.13 0.13 60 1007.2
20260504002242 20 305 12.9 20.9 0.00 0.13 0.13 61 1007.4
20260504001740 20 323 12.9 16.1 0.00 0.13 0.13 62 1007.2
20260504001237 20 292 24.1 33.8 0.00 0.13 0.13 60 1007.1
20260504000733 20 265 19.3 30.6 0.00 0.13 0.13 61 1006.9
20260504000231 20 300 19.3 25.7 0.00 0.13 0.13 62 1006.9
20260503235729 20 294 22.5 27.4 0.00 0.13 0.13 61 1006.9
20260503235226 20 279 14.5 22.5 0.00 0.13 0.13 63 1006.7
20260503234724 20 295 8.0 12.9 0.00 0.13 0.13 63 1006.4
20260503234222 20 103 1.6 6.4 0.00 0.13 0.13 68 1006.4
20260503233718 20 195 3.2 9.7 0.00 0.13 0.13 70 1006.7
20260503233214 19 262 4.8 9.7 0.00 0.13 0.13 72 1006.8
20260503232711 19 295 3.2 4.8 0.00 0.13 0.13 71 1006.8
20260503232208 18 349 4.8 12.9 0.00 0.13 0.13 70 1006.7
20260503231707 18 207 4.8 11.3 0.00 0.13 0.13 72 1006.7
20260503231203 18 253 11.3 14.5 0.00 0.13 0.13 72 1006.8
20260503230659 18 291 4.8 6.4 0.00 0.13 0.13 75 1006.9
20260503230156 18 183 4.8 9.7 0.00 0.13 0.13 74 1006.7
20260503225654 18 277 8.0 9.7 0.00 0.13 0.13 74 1006.7
20260503225153 18 297 11.3 16.1 0.00 0.13 0.13 73 1006.5
20260503224651 18 267 9.7 20.9 0.00 0.13 0.13 73 1006.8
20260503224149 18 282 12.9 16.1 0.00 0.13 0.13 74 1006.5
20260503223647 18 297 19.3 27.4 0.00 0.13 0.13 73 1006.7
20260503223143 18 273 11.3 25.7 0.00 0.13 0.13 75 1006.7
20260503222640 18 270 11.3 14.5 0.00 0.13 0.13 77 1006.5
20260503222137 18 317 11.3 17.7 0.00 0.13 0.13 77 1006.4
20260503221636 18 278 12.9 14.5 0.00 0.13 0.13 78 1006.1
20260503221133 18 274 9.7 16.1 0.00 0.13 0.13 79 1005.7
20260503220630 18 231 4.8 11.3 0.00 0.13 0.13 83 1005.6
20260503220126 18 173 0.0 4.8 0.00 0.13 0.13 84 1005.5
20260503215623 18 189 0.0 0.0 0.00 0.13 0.13 86 1005.6
20260503215120 18 277 3.2 4.8 0.00 0.13 0.13 84 1005.2
20260503214619 18 198 1.6 3.2 0.00 0.13 0.13 85 1005.4
20260503214115 18 196 1.6 3.2 0.00 0.13 0.13 84 1005.6
20260503213614 18 229 1.6 1.6 0.00 0.13 0.13 84 1005.5
20260503213110 18 241 3.2 4.8 0.00 0.13 0.13 83 1005.3
20260503212608 18 289 6.4 9.7 0.00 0.13 0.13 83 1005.2
20260503212105 18 257 3.2 9.7 0.00 0.13 0.13 83 1005.0
20260503211602 18 354 3.2 4.8 0.00 0.13 0.13 83 1005.1
20260503211057 18 315 4.8 6.4 0.00 0.13 0.13 83 1005.0
20260503210554 18 273 3.2 4.8 0.00 0.13 0.13 82 1005.0
20260503210050 18 4 3.2 12.9 0.00 0.13 0.13 82 1005.0
20260503205547 18 267 6.4 11.3 0.00 0.13 0.13 82 1004.7
20260503205043 18 310 9.7 17.7 0.00 0.13 0.13 82 1004.9
20260503204540 18 316 6.4 11.3 0.00 0.13 0.13 82 1004.7
20260503204037 18 251 9.7 14.5 0.00 0.13 0.13 83 1004.5
20260503203534 18 269 9.7 11.3 0.00 0.13 0.13 85 1004.6
20260503203031 18 270 11.3 14.5 0.00 0.13 0.13 85 1004.5
20260503202529 18 287 14.5 20.9 0.00 0.13 0.13 84 1004.6
20260503202027 18 263 16.1 25.7 0.00 0.13 0.13 83 1004.5
20260503201525 18 281 11.3 17.7 0.00 0.13 0.13 83 1004.3
20260503201022 19 309 9.7 12.9 0.00 0.13 0.13 84 1004.4
20260503200518 19 285 11.3 12.9 0.00 0.13 0.13 85 1004.2
20260503200015 19 268 8.0 14.5 0.00 0.13 0.13 87 1004.2
20260503195512 19 267 8.0 14.5 0.00 0.13 0.13 87 1004.1
20260503195009 19 309 9.7 12.9 0.00 0.13 0.13 89 1004.1
20260503194506 19 298 6.4 9.7 0.00 0.13 0.13 90 1004.0
20260503194000 19 307 4.8 4.8 0.00 0.13 0.13 92 1003.9
20260503193457 19 345 3.2 4.8 0.00 0.13 0.13 93 1003.8
20260503192952 19 103 1.6 4.8 0.00 0.13 0.13 93 1003.5
20260503192449 19 276 3.2 4.8 0.00 0.13 0.13 94 1003.7
20260503191944 18 265 3.2 4.8 0.00 0.13 0.13 95 1003.6
20260503191442 18 264 3.2 4.8 0.00 0.13 0.13 96 1003.5
20260503190938 18 166 1.6 4.8 0.00 0.13 0.13 96 1003.6
20260503190436 18 76 0.0 1.6 0.00 0.13 0.13 96 1003.4
20260503185933 18 133 0.0 0.0 0.00 0.13 0.13 96 1003.3
20260503185429 18 102 0.0 0.0 0.00 0.13 0.13 96 1002.8
20260503184928 18 182 0.0 0.0 0.00 0.13 0.13 96 1003.0
20260503184425 18 121 0.0 0.0 0.00 0.13 0.13 96 1003.0
20260503183922 18 129 0.0 1.6 0.00 0.13 0.13 96 1002.7
20260503183418 18 76 0.0 0.0 0.00 0.13 0.13 96 1003.3
20260503182915 18 53 1.6 3.2 0.00 0.13 0.13 96 1003.4
20260503182414 18 165 0.0 0.0 0.00 0.13 0.13 96 1003.3
20260503181911 18 144 0.0 0.0 0.00 0.13 0.13 96 1003.1
20260503181408 18 144 0.0 0.0 0.00 0.13 0.13 96 1003.1
20260503180904 18 143 0.0 1.6 0.00 0.13 0.13 96 1003.0
20260503180403 18 168 0.0 0.0 0.00 0.13 0.13 96 1002.8
20260503175858 18 168 0.0 0.0 0.00 0.13 0.13 96 1002.7
20260503175357 18 167 0.0 3.2 0.00 0.13 0.13 95 1002.8
20260503174857 18 172 0.0 0.0 0.00 0.13 0.13 95 1002.6
20260503174356 18 287 3.2 3.2 0.13 0.13 0.13 95 1002.6
20260503173856 18 198 0.0 1.6 0.30 0.13 0.13 95 1003.0
20260503173353 18 167 1.6 3.2 0.30 0.10 0.10 94 1003.0
20260503172850 18 170 0.0 1.6 0.30 0.08 0.08 94 1002.7
20260503172348 18 293 4.8 9.7 0.18 0.05 0.05 94 1002.6
20260503171843 18 340 8.0 12.9 0.00 0.03 0.03 93 1002.7
20260503171340 18 312 9.7 16.1 0.00 0.03 0.03 93 1002.5
20260503170838 18 266 8.0 14.5 0.00 0.03 0.03 93 1002.5
20260503170334 18 274 4.8 12.9 0.00 0.03 0.03 92 1002.2